STARLINK-26 (44240 NORAD) Tracking and Keplerian Element Data

This shows tracking and keplerian element data for the satellite.

Feedback or suggestion? Click here.




ElementValue
Catalog44240
NameSTARLINK-26
Epoch Orbit10601
Epoch Day100.41945393
Epoch Year2021
RAAN161.2403
Inclination52.9634
Eccentricity0.0004843
Argument of Perigee7.8568
Mean Anonmoly353.8836
Mean Motion16.41561846
Decay Rate0.20637293
L11 44240U 19029F 21100.41945393 .20637293 12492-4 12328-2 0 9999
L22 44240 52.9634 161.2403 0004843 7.8568 353.8836 16.41561846106011



Live tracking and technical data element details for STARLINK-26 (NORAD 44240). STARLINK-26 can be tracked NOW for your location showing map with azimuth and elevation plus other details from your city location.







IsCatalogInMostPopularTable: catalog: 44240, numindb: 301
Update: records affected: 1



GetName: 44240 STARLINK-26

Hit Count: updated at: Thu, 15 May 2025 10:11:31 GMT